sat.trackr.live / text

‹ back to catalog

STARLINK-35529

NORAD 66259 · 2025-245AB

PAYLOAD ACTIVE UNKNOWN

§ Identity

Operator
Country
US
Launch date
2025-10-29
Launch site
AFETR
Launch vehicle
Mass (kg)
RCS (m²)

Purposes: comms

External: N2YO · Heavens-Above · Gunter

§ Orbital elements

Epoch: 2026-09-20T22:01:54.527808Z

Period
94.01 min
Inclination
53.1618°
Eccentricity
0.0001520
Mean motion
15.31766865 rev/d
Perigee alt
469.5 km
Apogee alt
471.6 km
Semi-major
6,848.7 km
B*
7.1122e-4
RAAN
95.8833°
Arg perigee
59.3352°
Mean anomaly
300.7799°
Rev number
5,116

§ Raw data

STARLINK-355291 66259U 25245AB  26263.91799222  .00021816  00000+0  71122-3 0  99992 66259  53.1618  95.8833 0001520  59.3352 300.7799 15.31766865 51161

JSON: /api/v1/satellites/66259 · /tle

For live sub-satellite position, see the globe view (requires WebGL).

§ Visibility from observer

Set your observer location to see the next 7 days of passes ≥ 10°. The values pass through the URL so the page stays shareable.

No JS? Fill the form by hand. The geolocation button needs JavaScript.